Location: Asheville, NC
(35.6000°N, 82.5500°W)
Time: 16:57:02
(UTC-05:00)

Vanguard 2 Rocket - Pass Details

Date: 12 December 2017
Orbit: 556 x 3326 km, 32.9° (Epoch: 20 January)

Event Time Altitude Azimuth Distance (km) Brightness Sun altitude
Rises 02:09:09 0° 285° (WNW) 7,094 - -64.0°
Reaches altitude 10° 02:13:58 10° 280° (W) 6,212 - -63.1°
Maximum altitude 02:32:48 49° 214° (SW) 3,744 - -59.4°
Exits shadow 02:43:31 24° 156° (SSE) 4,344 10.2 -57.3°
Drops below altitude 10° 02:47:57 10° 146° (SE) 5,061 10.8 -56.5°
Sets 02:51:27 0° 140° (SE) 5,746 11.2 -55.8°
